This is the latest recevied weather packets stored in our database for station/object 9M2ABD-1. If no packets are shown the sender has not sent any weather packets the latest 10 day(s).
| Time | Temp. | Humidity | Pressure | Rain* | Wind** | Luminosity | Snow |
|---|---|---|---|---|---|---|---|
| 1777702777 | 31.67° C | 71% | 1008.3 hPa | - | - | - | - |
| 1777701577 | 31.67° C | 72% | 1008.8 hPa | - | - | - | - |
| 1777700377 | 31.67° C | 72% | 1008.9 hPa | - | - | - | - |
| 1777699177 | 31.11° C | 73% | 1009.2 hPa | - | - | - | - |
| 1777697977 | 31.11° C | 74% | 1009.8 hPa | - | - | - | - |
| 1777696777 | 31.11° C | 74% | 1010.1 hPa | - | - | - | - |
| 1777695576 | 31.11° C | 74% | 1010.5 hPa | - | - | - | - |
| 1777694376 | 30.56° C | 74% | 1010.6 hPa | - | - | - | - |
| 1777693176 | 30.56° C | 75% | 1010.9 hPa | - | - | - | - |
| 1777691976 | 30° C | 76% | 1011.1 hPa | - | - | - | - |
| 1777690776 | 30° C | 77% | 1011.2 hPa | - | - | - | - |
| 1777689576 | 30° C | 77% | 1011.2 hPa | - | - | - | - |
| 1777688375 | 29.44° C | 77% | 1011 hPa | - | - | - | - |
| 1777687175 | 29.44° C | 79% | 1011 hPa | - | - | - | - |
| 1777685975 | 28.89° C | 79% | 1010.8 hPa | - | - | - | - |
| 1777684774 | 28.89° C | 79% | 1010.9 hPa | - | - | - | - |
| 1777682377 | 28.33° C | 80% | 1010.3 hPa | - | - | - | - |
| 1777681177 | 28.33° C | 79% | 1010.1 hPa | - | - | - | - |
| 1777679977 | 28.33° C | 80% | 1009.9 hPa | - | - | - | - |
| 1777678776 | 27.78° C | 79% | 1009.7 hPa | - | - | - | - |
| 1777677576 | 27.78° C | 79% | 1009.2 hPa | - | - | - | - |
| 1777676376 | 27.78° C | 78% | 1009.1 hPa | - | - | - | - |
| 1777675176 | 28.33° C | 79% | 1008.8 hPa | - | - | - | - |
| 1777673977 | 28.33° C | 79% | 1008.6 hPa | - | - | - | - |
| 1777672776 | 28.33° C | 79% | 1008.3 hPa | - | - | - | - |
* Rain since midnight (hover to see other rain measurements)
** Current wind speed in m/s (hover to see current wind gust speed)